Orbital Elements at Epoch 2459200.5 (2020-Dec-17.0) TDB
Reference: JPL 36 (heliocentric ecliptic J2000)
Element | Value | Uncertainty (1-sigma) | Units |
e | .06788546279045517 | 2.1635e-08 | |
a | 2.731842359565825 | 1.0483e-08 | au |
q | 2.54638997671613 | 5.6694e-08 | au |
i | 6.764483052880867 | 7.5297e-07 | deg |
node | 1.818541352895004 | 9.3981e-06 | deg |
peri | 232.3072373061638 | 1.358e-05 | deg |
M | 102.1526618740323 | 1.3696e-05 | deg |
tp | 2458732.518089286899 (2019-Sep-06.01808929) | 6.2687e-05 | TDB |
period | 1649.232479761188 4.52 | 9.4928e-06 2.599e-08 | d yr |
n | .2182833556929032 | 1.2564e-09 | deg/d |
Q | 2.917294742415521 | 1.1194e-08 | au |
|
| | Orbit Determination Parameters
Additional Information
|